Weather History for KBLH - May, 2014

Change the Weather History Date:

Monday, May 19, 2014

  Actual Average Record
Temperature  
Mean Temperature 85 °F -  
Max Temperature 98 °F 95 °F 113 °F (2008)
Min Temperature 73 °F 65 °F 48 °F (2011)
Cooling Degree Days 20    
Growing Degree Days 35 (Base 50)    
Moisture  
Dew Point 28 °F    
Average Humidity 16    
Maximum Humidity 31    
Minimum Humidity 4    
Precipitation  
Precipitation 0.00 in - - ()
Sea Level Pressure  
Sea Level Pressure 29.71 in    
Wind  
Wind Speed 11 mph (SW)    
Max Wind Speed 23 mph    
Max Gust Speed 31 mph    
Visibility 10 miles    
Events      
Averages and records for this station are not official NWS values.
T = Trace of Precipitation, MM = Missing Value Source: NWS Daily Summary

Daily Weather History Graph

Daily Weather History Graph

Search for Another Location

Airport or City:

Trip Planner

Search our weather history database for the weather conditions in past years. The results will help you decide how hot, cold, wet, or windy it might be!

Date:

Astronomy

May. 19, 2014 Rise Set
Actual Time 5:35 AM PDT 7:35 PM PDT
Civil Twilight 5:07 AM PDT 8:03 PM PDT
Nautical Twilight 4:34 AM PDT 8:37 PM PDT
Astronomical Twilight 3:58 AM PDT 9:13 PM PDT
Moon No Moon Rise 10:33 AM PDT (5/19)
Length of Visible Light 14h 55m
Length of Day
14h 00m
Waning Gibbous, 70% of the Moon is Illuminated
May 19
Waning Gibbous
May 21
Last Quarter
May 28
New
Jun 5
First Quarter
Jun 12
Full

Hourly Weather History & Observations

Time (PDT) Temp. Dew Point Humidity Pressure Visibility Wind Dir Wind Speed Gust Speed Precip Events Conditions
12:52 AM 80.1 °F 41.0 °F 25% 29.67 in 10.0 mi North - - N/A   Clear
1:52 AM 78.1 °F 39.0 °F 25% 29.67 in 10.0 mi WSW 10.4 mph - N/A   Clear
2:52 AM 77.0 °F 43.0 °F 30% 29.67 in 10.0 mi WSW 9.2 mph - N/A   Clear
3:52 AM 75.0 °F 42.1 °F 31% 29.68 in 10.0 mi West 4.6 mph - N/A   Clear
4:52 AM 73.0 °F 39.0 °F 29% 29.69 in 10.0 mi SW 8.1 mph - N/A   Clear
7:52 AM 77.0 °F 39.0 °F 25% 29.75 in 10.0 mi WSW 5.8 mph - N/A   Clear
8:52 AM 82.0 °F 37.9 °F 21% 29.77 in 10.0 mi SSW 5.8 mph - N/A   Clear
9:52 AM 84.9 °F 36.0 °F 17% 29.77 in 10.0 mi SW 4.6 mph - N/A   Clear
11:52 AM 90.0 °F 34.0 °F 14% 29.76 in 10.0 mi Variable 4.6 mph - N/A   Clear
12:52 PM 93.0 °F 27.0 °F 9% 29.74 in 10.0 mi South 10.4 mph - N/A   Clear
1:52 PM 96.1 °F 10.9 °F 4% 29.72 in 10.0 mi SW 16.1 mph 28.8 mph N/A   Clear
2:52 PM 97.0 °F 6.1 °F 4% 29.70 in 10.0 mi SW 20.7 mph 31.1 mph N/A   Clear
3:52 PM 97.0 °F 3.0 °F 4% 29.68 in 10.0 mi SW 23.0 mph 28.8 mph N/A   Clear
4:52 PM 97.0 °F 10.0 °F 4% 29.67 in 10.0 mi SW 23.0 mph 31.1 mph N/A   Clear
5:52 PM 95.0 °F 12.9 °F 5% 29.67 in 10.0 mi SW 20.7 mph 28.8 mph N/A   Clear
6:52 PM 91.9 °F 16.0 °F 6% 29.68 in 7.0 mi SW 20.7 mph - N/A   Clear
7:52 PM 87.1 °F 21.0 °F 9% 29.69 in 9.0 mi WSW 16.1 mph - N/A   Clear
8:52 PM 84.0 °F 25.0 °F 12% 29.70 in 10.0 mi SW 9.2 mph - N/A   Clear
9:52 PM 81.0 °F 35.1 °F 19% 29.72 in 10.0 mi SW 13.8 mph - N/A   Clear
10:52 PM 78.1 °F 34.0 °F 20% 29.73 in 10.0 mi WSW 5.8 mph - N/A   Clear
11:52 PM 75.9 °F 32.0 °F 20% 29.73 in 10.0 mi SSW 15.0 mph - N/A   Clear